Location: Allos
(44.2333°N, 6.6333°E)
Time: 09:46:49
(UTC+00:00)

YAOGAN 3 - Pass Details

Date: 01 December 2020
Orbit: 625 x 627 km, 98.0° (Epoch: 26 January)

Event Time Altitude Azimuth Distance (km) Brightness Sun altitude
Rises 17:22:57 0° 158° (SSE) 2,898 7.9 -15.1°
Reaches altitude 10° 17:25:08 10° 156° (SSE) 1,996 7.1 -15.5°
Maximum altitude 17:29:27 67° 75° (ENE) 684 4.5 -16.3°
Drops below altitude 10° 17:33:48 10° 352° (N) 2,013 7.1 -17.0°
Sets 17:36:00 0° 350° (N) 2,925 8.0 -17.4°
